Weather Roundup
Issued by NWS Corpus Christi, TX

Home | Current Version | Previous Version | Text Only | Print | Product List | Glossary On
Versions: 1 2 3 4 5 6 7 8 9 10 11 12 13 14 15 16 17 18 19 20 21 22 23 24 25 26 27 28 29 30 31 32 33 34 35 36 37 38 39 40 41 42 43 44 45 46 47 48 49 50
000
ASUS44 KCRP 180110
HRRCRP

SOUTH TEXAS REGIONAL WEATHER ROUNDUP
NATIONAL WEATHER SERVICE CORPUS CHRISTI TX
800 PM CDT THU APR 17 2014


TXZ229>244-180200-
...CORPUS CHRISTI AREA OBSERVATIONS...

CITY           SKY/WX    TMP DP  RH WIND       PRES   REMARKS
CORPUS CHRISTI CLOUDY    68  63  84 E20G25    30.03S
NAS CORPUS CHR CLOUDY    67  64  90 E17       30.03S
ROCKPORT       CLOUDY    65  63  93 E20       30.05S FOG
KINGSVILLE NAS CLOUDY    69  64  84 E16       30.02S
ALICE          CLOUDY    69  62  78 E14       30.03R
FALFURRIAS     CLOUDY    71  65  81 E15G21    30.01S
$$

...VICTORIA AREA OBSERVATIONS...

CITY           SKY/WX    TMP DP  RH WIND       PRES   REMARKS
VICTORIA       CLOUDY    65  61  87 E8        30.08R
BEEVILLE       CLOUDY    64  64 100 E10       30.05R FOG
PLEASANTON     HVY RAIN  65  61  85 NE10      30.07R
SAN ANTONIO    LGT RAIN  63  62  97 E6        30.09R VSB 3/4
$$

...LAREDO AREA OBSERVATIONS...

CITY           SKY/WX    TMP DP  RH WIND       PRES   REMARKS
LAREDO         CLOUDY    76  60  57 E12       30.02R
COTULLA        CLOUDY    73  59  61 E13       30.02R
DEL RIO        CLEAR     79  52  38 E9        29.98R
MCALLEN        CLOUDY    69  66  90 E13       30.00R
HEBBRONVILLE   CLOUDY    71  62  71 E13       30.02R
$$

...OTHER TEXAS OBSERVATIONS...

CITY           SKY/WX    TMP DP  RH WIND       PRES   REMARKS
BROWNSVILLE    CLOUDY    70  68  94 NE10      29.99R
HOUSTON        CLOUDY    66  55  67 SE10      30.10R
COL. STATION   CLOUDY    69  56  62 NE7       30.10R
AUSTIN         DRIZZLE   62  61  96 N7        30.11R FOG
WACO           CLOUDY    61  59  93 N6        30.13R FOG
FORT WORTH     CLOUDY    59  54  83 NE7       30.14S
WICHITA FALLS  LGT RAIN  55  54  96 E12       30.17R FOG
LUBBOCK        MOCLDY    54  40  59 NE15      30.17R
EL PASO        CLEAR     78  22  12 E10       30.01S
$$

...MARINE OBSERVATIONS...

STATION/POSITION TIME  SKY/WX   TEMP    WIND        PRES    VSBY  WAVE   SWELL
                                AIR SEA DIR/SP/G                  HT/PER HT/PER
                 (UTC)          (F)     (DEG/KT/KT) (MB)    (MI)  (FT/S) (FT/S)
PORT ARANSAS     0100            65 67   60/ 20/ 22 1017.3R
BUOY 90 E PORT A NOT AVBL
BUOY 45 SE BAFFI 0100            69 69   80/ 17/ 21 1015.9R         6/ 6
BUOY 200 E PT IS NOT AVBL
BUOY 15 E GALVES 0100            63 66   70/ 14/ 16 1019.0R         4/ 6
$$


USA.gov is the U.S. government's official web portal to all federal, state and local government web resources and services.